Home   Weather   Richmond   Past weeks

Flag for USA Past Weather in Richmond, Virginia, USA — Yesterday and Last 2 Weeks

Now
77 °F

Overcast.


Feels Like: 79 °F
Forecast: 71 / 90 °F
Wind: 15 mph from Southwest

Location: Richmond International Airport

Current Time: Jul 27, 2017 at 10:12:37 am

Latest Report: Jul 27, 2017 at 8:54 am


Visibility: 10 mi

Pressure: 30.06 "Hg

Humidity: 74%

Dew Point: 68 °F

Location of RichmondLocation

Past Weather in Richmond — Graph

°F

Richmond Temperature Yesterday

Maximum temperature yesterday: 88 °F (at 2:54 pm)
Minimum temperature yesterday: 68 °F (at 3:54 am)
Average temperature yesterday: 77 °F

High & Low Weather Summary for the Past Weeks

 TemperatureHumidityPressure
High100 °F (Jul 22, 4:54 pm)100% (Jul 19, 3:54 am)30.22 "Hg (Jul 19, 3:54 am)
Low68 °F (Jul 19, 5:54 am)32% (Jul 23, 4:54 pm)29.75 "Hg (Jul 23, 6:43 pm)
Average83 °F67%29.99 "Hg
* Reported Jul 12 8:54 am — Jul 27 8:54 am, Richmond. Weather by CustomWeather, © 2017

Note: Actual official high and low records may vary slightly from our data, if they occured in-between our weather recording intervals... More about our weather records

Advertising

Richmond Weather History for the Previous 24 Hours

Scroll right to see more
 ConditionsComfort  
Time TempWeatherWind HumidityBarometerVisibility
8:54 am
Thu, Jul 27
77 °FOvercast.15 mph74%30.06 "Hg10 mi
7:54 am73 °FPartly sunny.7 mph84%30.06 "Hg10 mi
6:54 am71 °FMore clouds than sun.6 mph90%30.06 "Hg10 mi
5:54 am70 °FPassing clouds.7 mph90%30.06 "Hg10 mi
4:54 am70 °FPassing clouds.8 mph90%30.05 "Hg10 mi
3:54 am69 °FPassing clouds.5 mph93%30.07 "Hg10 mi
2:54 am70 °FPassing clouds.6 mph90%30.09 "Hg10 mi
1:54 am71 °FPassing clouds.7 mph87%30.11 "Hg10 mi
12:54 am72 °FPassing clouds.10 mph81%30.12 "Hg10 mi
11:54 pm
Wed, Jul 26
73 °FPassing clouds.9 mph79%30.12 "Hg10 mi
10:54 pm73 °FPassing clouds.9 mph76%30.11 "Hg10 mi
9:54 pm74 °FPassing clouds.9 mph74%30.11 "Hg10 mi
8:54 pm77 °FPassing clouds.10 mph66%30.10 "Hg10 mi
7:54 pm80 °FScattered clouds.8 mph64%30.09 "Hg10 mi
6:54 pm84 °FScattered clouds.10 mph53%30.09 "Hg10 mi
5:54 pm87 °FScattered clouds.6 mph45%30.09 "Hg10 mi
4:54 pm85 °FScattered clouds.No wind46%30.11 "Hg10 mi
3:54 pm85 °FScattered clouds.7 mph48%30.12 "Hg10 mi
2:54 pm88 °FScattered clouds.No wind43%30.14 "Hg10 mi
1:54 pm85 °FScattered clouds.No wind48%30.16 "Hg10 mi
12:54 pm81 °FScattered clouds.No wind56%30.18 "Hg10 mi
11:54 am83 °FScattered clouds.5 mph55%30.20 "Hg10 mi
10:54 am79 °FScattered clouds.3 mph65%30.21 "Hg10 mi
Weather by CustomWeather, © 2017

See weather overviewHow to use our weather pages